GEFSGL_500_meanwind_030.txt.gz
Wind_Speed
41 41 41 41 40 40 40 39 39 38 38 36 34 33 32 32 33 34 35 35 35 35 35 34 34 33 32 30 29 27 26 25 24 24 24 25 27 28 29 30 31 33 34
44 44 44 43 41 41 40 40 39 38 38 36 34 32 30 30 29 30 31 31 31 30 30 30 29 28 26 25 25 24 23 22 22 22 23 25 26 27 27 28 29 30 31
48 47 46 45 43 41 40 40 39 38 37 36 34 31 29 28 27 26 27 27 27 27 27 27 26 26 24 24 23 22 21 22 23 23 24 24 24 24 25 25 25 25 25
52 51 49 47 45 43 42 41 39 38 37 35 33 31 28 26 25 24 23 22 23 24 24 25 25 25 24 23 22 21 22 22 22 22 22 23 23 22 21 20 20 21 22
56 54 52 50 48 46 44 43 40 38 36 34 32 30 27 25 23 22 21 19 19 21 23 23 23 23 23 23 22 21 21 21 21 20 20 19 18 17 17 16 17 18 20
61 59 56 54 52 49 46 44 42 38 35 33 31 29 26 24 22 21 19 19 19 19 21 22 23 23 23 22 22 21 20 19 18 17 16 15 15 15 15 15 16 17 19
66 63 61 59 56 53 49 46 43 39 35 32 30 27 25 23 20 19 18 17 17 18 18 21 22 21 20 20 20 19 17 16 15 15 14 14 13 13 13 14 15 16 18
70 69 67 64 61 56 51 47 43 39 35 32 28 26 23 21 19 17 17 15 15 15 16 18 18 18 17 18 17 16 15 13 13 13 12 12 11 11 12 13 14 16 17
72 70 66 63 59 55 51 47 43 40 35 32 28 25 22 20 18 16 14 13 14 14 14 14 15 15 15 15 14 13 12 11 11 10 9 9 9 9 10 11 12 14 15
63 59 56 54 52 50 47 46 43 40 36 32 28 24 22 19 17 15 14 13 13 14 14 13 13 13 13 13 12 11 11 9 8 8 8 8 8 8 9 9 10 12 14
47 46 46 46 46 47 47 45 43 40 36 32 28 25 22 19 17 15 13 13 13 13 13 12 12 13 12 11 11 10 9 8 8 7 7 6 6 6 7 7 8 10 11
38 39 39 40 41 43 44 44 42 40 37 33 29 25 23 19 16 14 13 12 13 13 13 13 14 13 12 11 11 10 9 8 7 6 5 5 4 4 4 5 6 7 9
37 38 39 39 38 38 41 43 43 41 38 34 30 26 23 20 17 15 14 14 14 14 14 14 13 13 12 11 11 10 9 8 7 6 5 4 3 2 2 3 5 7 9
38 37 38 37 35 35 39 43 43 40 38 35 31 27 24 21 19 18 17 17 16 15 15 14 13 12 12 11 10 9 9 8 6 6 5 4 2 1 1 2 4 7 10
38 37 35 32 31 32 38 43 43 40 38 35 30 28 25 23 21 21 20 19 18 17 16 15 13 12 11 11 10 9 9 8 7 7 6 4 3 2 0 2 5 7 10
37 34 32 29 29 31 39 43 44 40 38 36 33 30 29 26 24 22 21 20 19 17 16 14 13 12 11 11 10 10 10 9 9 8 7 5 3 2 1 3 5 8 11
34 31 28 27 27 31 39 42 41 39 39 38 35 32 30 27 25 23 22 21 19 17 15 14 13 12 11 11 11 11 11 10 10 9 7 6 4 3 2 4 6 9 12
31 28 26 24 25 31 38 40 40 41 41 39 36 34 31 29 27 24 22 21 19 17 16 14 13 12 12 11 11 11 12 12 11 10 9 7 6 5 5 6 8 10 13
26 24 23 23 27 32 37 38 40 41 42 40 37 35 33 30 28 25 23 21 19 17 16 15 14 13 12 12 12 12 13 13 13 12 11 9 9 9 9 10 11 13 15
23 21 20 23 28 32 36 37 41 42 43 41 38 35 32 29 26 24 23 21 19 17 16 15 14 14 13 13 13 14 14 14 14 14 13 12 12 12 13 14 15 16 17
20 19 20 24 28 33 36 36 40 42 43 40 37 35 32 30 28 27 25 22 20 18 16 15 15 15 14 14 14 15 15 15 16 16 15 15 16 16 17 18 18 19 20
18 20 22 26 30 34 35 37 41 42 41 39 37 36 34 31 29 27 24 22 20 18 16 15 15 15 15 16 16 15 16 16 17 17 18 18 18 19 20 21 21 22 22
20 22 25 29 31 33 36 38 40 41 40 39 36 34 32 29 27 25 23 21 19 17 16 15 15 15 15 16 16 16 16 17 17 18 19 19 20 21 22 23 23 23 23
21 25 28 31 33 35 38 39 40 39 39 38 35 33 31 29 26 24 22 20 18 16 15 15 15 15 15 16 16 16 16 16 17 18 20 20 21 22 23 24 24 24 24
25 29 31 32 34 36 38 39 39 39 38 36 33 31 29 27 25 23 21 19 17 15 14 14 14 14 14 15 15 15 16 16 17 18 20 20 21 22 23 24 24 24 25
29 32 33 33 34 36 37 37 37 36 35 34 32 30 28 26 24 22 20 18 16 15 14 14 14 14 14 14 14 15 15 15 16 18 18 19 21 22 23 23 23 24 26

GEFSGL_500_meanwind_036.txt.gz
Wind_Speed
49 49 48 47 46 44 42 40 38 36 34 33 32 31 31 31 32 32 32 31 30 29 29 29 30 31 32 33 34 34 34 34 34 33 33 32 31 31 30 29 29 28 30
54 55 54 54 52 49 47 45 42 39 37 35 33 32 32 31 31 32 32 31 29 28 28 27 28 28 29 30 31 32 32 32 31 32 31 31 29 29 29 29 27 27 27
59 60 59 58 57 55 52 50 47 44 41 38 36 34 33 33 32 32 32 31 30 28 27 26 25 25 27 28 28 29 29 29 30 30 30 29 28 27 28 27 27 27 27
64 64 64 64 63 62 59 56 53 50 46 42 39 37 35 34 33 33 32 31 30 28 26 25 23 23 24 25 26 26 26 26 27 27 27 27 27 27 28 28 27 25 24
69 70 70 70 69 67 64 62 58 54 51 47 44 41 39 37 36 34 33 32 30 28 26 24 23 22 22 23 24 25 25 25 26 27 28 29 28 27 27 26 25 24 23
76 76 76 76 75 72 70 67 63 59 54 51 48 46 43 41 38 36 35 33 30 28 25 24 22 22 23 24 25 24 25 25 26 27 28 28 27 26 25 23 23 22 21
83 82 82 82 80 77 75 71 68 63 59 54 51 48 46 43 41 38 36 33 31 27 25 23 23 22 22 23 25 24 24 25 25 25 25 25 24 22 20 20 18 17 15
77 77 78 79 78 76 74 71 68 65 60 56 53 50 47 45 42 39 37 33 30 27 24 22 22 23 22 22 22 24 25 24 24 24 24 23 21 19 17 16 14 13 13
56 58 59 60 61 62 63 63 61 60 57 55 52 50 47 44 42 39 36 33 29 26 25 23 22 23 24 23 22 23 24 25 23 22 21 19 17 15 14 13 13 12 12
40 39 40 40 41 42 44 46 47 49 49 49 47 46 44 42 40 38 35 32 29 26 24 22 22 22 22 22 21 22 23 22 21 19 18 16 15 14 12 12 12 11 10
34 33 32 31 30 30 31 33 35 37 41 43 42 42 42 40 39 37 33 30 28 25 23 21 21 22 22 21 21 21 20 19 18 17 16 15 14 13 12 11 10 9 8
32 30 28 26 26 25 25 27 28 30 33 39 41 40 41 39 38 36 32 30 27 24 22 21 21 21 21 21 20 20 19 18 17 16 15 14 13 12 11 10 9 8 8
32 30 28 27 26 26 25 25 26 28 30 34 40 40 39 38 37 35 32 30 27 24 23 22 21 21 20 19 19 19 19 18 17 16 14 13 13 12 12 11 10 9 8
34 31 29 28 26 26 25 26 27 28 30 31 37 42 40 36 35 34 32 29 27 25 24 23 23 22 21 20 20 20 19 18 17 15 14 14 13 13 12 11 10 9 8
36 34 32 30 29 28 26 26 27 29 31 31 33 39 40 36 35 34 31 29 27 26 25 25 24 23 22 21 21 20 19 18 17 16 15 14 14 13 12 11 11 10 8
37 35 33 31 29 28 28 27 27 28 30 33 33 36 40 39 37 35 33 31 30 28 26 26 25 24 23 22 21 20 19 18 17 16 15 15 14 14 13 12 12 10 9
37 34 32 29 28 28 27 27 27 28 29 31 34 37 40 40 39 37 34 33 31 29 28 27 26 24 23 22 21 20 19 18 17 17 16 15 15 15 14 14 13 12 11
34 31 29 27 26 25 24 24 24 24 26 29 34 38 41 41 40 38 36 34 31 30 29 28 26 24 23 22 21 20 19 18 18 17 17 16 16 16 15 14 14 13 13
27 25 24 24 23 22 21 21 22 23 25 29 35 39 43 43 41 39 36 34 32 31 29 27 26 24 23 21 20 19 18 18 17 17 17 17 17 16 16 16 15 15 15
21 20 19 19 20 19 19 20 21 24 27 32 37 41 44 42 40 39 37 36 34 33 30 28 26 24 22 20 19 18 17 17 17 17 17 17 17 18 18 17 17 17 17
15 15 17 17 18 18 19 20 22 26 32 36 39 42 42 39 37 36 35 34 33 31 29 27 24 23 21 19 18 17 16 16 16 17 17 17 18 18 19 19 20 19 19
9 12 15 17 17 18 20 22 26 31 36 39 42 44 41 39 37 35 34 32 31 29 28 26 23 21 20 18 17 16 15 16 17 17 18 18 19 19 20 20 21 21 22
9 13 16 17 18 20 24 28 31 36 39 41 44 41 40 39 38 35 33 31 29 27 26 24 22 20 18 17 16 15 15 16 16 17 18 19 19 20 20 20 21 22 22
15 18 20 21 23 27 30 31 34 37 41 43 41 39 38 37 36 33 31 29 27 25 23 22 20 18 17 16 15 15 15 16 16 17 18 19 19 20 20 21 21 22 23
20 22 24 28 31 32 31 33 36 38 41 40 39 38 36 35 33 30 28 26 25 23 21 20 17 16 15 15 15 15 15 16 16 17 18 18 19 19 20 21 22 22 23
25 28 31 32 31 32 32 33 35 36 37 38 37 35 33 32 30 27 26 24 22 21 19 17 15 14 14 14 14 15 15 16 16 16 17 18 18 19 20 21 22 22 23

GEFSGL_500_meanwind_042.txt.gz
Wind_Speed
60 61 61 62 62 63 62 62 61 60 57 55 53 51 47 45 43 42 40 38 36 34 34 32 30 28 27 27 26 25 25 25 24 24 24 24 25 25 25 24 24 25 25
63 64 64 65 66 66 66 66 65 64 62 61 58 55 52 49 47 44 41 39 37 35 34 32 30 29 28 27 26 25 25 24 24 24 24 24 25 25 25 24 24 23 24
67 67 68 69 69 70 70 69 69 68 66 64 61 58 55 53 50 47 44 41 39 36 35 33 31 29 28 27 27 25 24 24 23 23 23 24 24 24 25 24 24 23 23
72 72 73 73 74 73 73 73 73 72 70 69 66 61 58 56 53 49 47 44 42 39 37 34 32 30 28 27 26 24 23 23 22 21 21 22 23 23 23 23 24 24 23
72 72 73 75 76 77 77 77 77 77 75 73 70 67 63 59 56 52 49 46 44 41 39 36 33 31 29 27 27 25 23 22 22 21 21 22 22 22 22 21 21 21 21
59 58 59 60 63 66 69 73 75 76 78 77 75 73 69 65 59 54 49 47 45 41 39 36 34 32 29 28 27 25 23 22 21 21 21 21 21 21 21 21 21 21 22
39 37 37 38 39 42 45 49 54 59 65 70 73 74 72 69 64 58 53 49 45 42 38 37 35 32 30 28 27 26 24 23 22 21 21 21 21 20 21 21 20 20 20
29 30 31 31 31 32 33 35 36 39 43 49 55 62 65 66 63 60 56 52 48 44 41 39 36 33 31 29 28 27 26 24 23 21 20 21 21 21 22 21 20 19 18
35 35 35 34 33 32 32 31 32 32 33 35 38 43 49 53 55 56 56 53 50 47 43 40 37 34 32 30 28 27 25 24 22 22 21 20 21 20 19 19 18 16 15
39 39 38 37 35 33 32 31 30 29 29 30 31 33 36 41 45 48 49 50 49 47 44 42 39 35 33 30 29 26 25 23 22 21 22 21 21 20 19 18 16 14 14
43 42 40 38 36 35 33 31 29 28 27 26 26 28 30 34 39 43 45 45 45 45 43 42 38 35 33 30 29 27 24 23 22 21 21 20 20 18 18 16 15 14 14
45 43 41 39 37 35 33 31 29 26 25 24 23 24 26 30 34 39 42 41 42 43 41 39 36 34 31 30 28 26 24 22 22 20 20 19 18 17 17 16 15 14 13
46 44 41 39 37 35 33 30 29 26 24 22 21 21 22 25 31 36 40 39 40 40 38 36 34 32 30 28 27 25 24 23 21 19 19 18 18 17 16 15 14 14 14
45 42 40 38 36 34 32 30 28 26 24 22 21 20 19 21 26 33 36 37 38 38 35 33 32 30 28 27 25 23 22 22 20 19 18 18 18 17 15 15 15 14 13
42 40 39 36 34 32 30 29 27 25 23 21 20 19 18 20 24 31 36 36 36 36 34 31 29 28 27 25 24 23 22 21 20 19 18 18 18 17 17 16 15 14 13
38 36 35 34 31 29 28 27 26 25 23 21 20 19 17 18 20 29 36 35 35 35 34 32 30 28 26 25 25 24 23 21 20 19 19 18 17 17 17 16 14 13 13
33 30 29 28 27 26 26 25 25 24 22 21 19 18 18 18 19 26 33 34 35 35 34 32 30 28 27 26 25 25 23 22 21 20 19 18 17 17 16 15 14 14 13
26 24 21 21 21 21 22 23 24 23 22 21 20 19 19 19 21 26 31 34 35 36 34 31 29 28 27 26 25 24 23 22 21 20 19 18 17 16 15 14 14 13 12
20 18 16 15 15 16 17 20 22 21 21 21 20 19 20 21 23 26 30 33 35 35 33 32 30 28 27 26 25 24 23 22 21 20 18 17 16 15 14 14 13 13 12
14 11 10 9 10 11 13 16 18 19 20 20 21 20 21 23 25 27 29 32 33 34 33 31 30 28 27 26 24 24 23 22 20 19 17 16 15 14 14 13 13 13 13
8 4 2 5 7 9 12 15 16 18 20 20 21 22 23 25 27 28 29 31 32 33 32 31 30 28 27 26 25 23 22 20 19 18 16 15 14 13 13 13 13 14 15
9 6 6 8 9 12 14 15 16 18 20 22 23 23 25 28 29 30 29 30 32 32 31 31 29 28 26 25 23 21 20 19 18 16 16 15 14 13 13 14 14 15 17
14 13 12 12 12 14 16 16 18 20 22 24 24 26 29 31 30 30 31 31 32 31 30 29 28 27 25 23 22 20 19 18 17 16 15 14 14 14 14 15 16 17 18
18 17 16 15 15 17 19 20 22 24 25 26 28 30 31 31 31 32 32 31 31 29 28 27 26 24 23 21 20 18 17 16 15 15 15 14 14 15 15 16 17 18 20
20 20 20 20 20 22 23 24 25 26 27 29 31 32 32 32 33 33 32 31 29 28 26 25 23 22 21 19 18 16 15 14 14 14 15 15 15 15 16 17 18 20 21
25 24 24 25 26 26 27 27 28 29 30 32 32 32 32 32 32 32 30 29 27 26 24 22 21 19 18 16 15 14 14 14 14 14 15 15 15 16 17 18 20 21 22

GEFSGL_500_meanwind_048.txt.gz
Wind_Speed
63 64 64 63 63 63 63 63 63 62 62 62 61 60 60 59 58 56 54 52 50 47 45 43 41 40 38 36 34 32 31 28 26 25 24 23 23 22 22 23 24 24 24
69 69 70 69 69 68 68 68 68 67 66 65 64 64 63 63 62 60 58 56 53 51 48 46 44 42 40 38 36 33 32 30 27 25 24 23 23 22 22 22 23 23 24
71 70 68 67 67 66 66 67 68 69 69 69 68 67 66 65 64 63 61 59 56 53 51 49 47 45 42 40 37 34 32 30 28 25 23 22 22 22 22 22 22 23 24
64 61 57 55 54 54 53 54 57 60 63 66 68 69 69 68 66 64 63 61 58 55 53 50 48 46 44 42 38 35 33 31 29 26 24 23 21 21 21 21 22 22 23
51 47 45 43 42 41 40 41 42 44 48 52 57 62 65 67 68 67 65 63 60 57 54 52 49 47 44 42 39 36 33 31 29 27 24 23 21 21 20 20 20 21 22
42 40 39 37 35 34 31 30 31 32 34 36 39 45 51 58 63 66 66 65 62 59 56 53 51 48 45 43 40 37 35 32 30 28 25 24 22 21 20 19 19 19 20
40 39 38 36 35 33 32 31 31 30 30 29 30 31 34 39 46 54 60 63 63 62 59 55 53 49 46 43 41 38 35 33 30 28 26 24 22 21 20 19 19 19 19
41 40 40 39 38 36 35 34 34 33 32 32 31 31 31 32 35 39 46 53 57 60 59 57 54 51 47 44 42 38 35 33 31 28 26 24 22 20 19 19 19 19 19
44 43 42 41 41 40 39 38 36 35 34 33 32 31 31 30 31 32 35 41 47 53 56 56 55 52 49 45 42 38 36 33 31 29 27 24 22 20 19 19 18 18 19
46 44 44 44 43 42 41 39 38 37 36 34 33 31 30 29 29 30 31 34 39 45 50 53 54 52 50 47 42 39 36 33 31 29 26 24 22 21 20 19 18 18 19
48 47 46 45 44 42 41 40 38 37 35 34 32 30 29 28 28 28 29 29 32 39 44 48 51 51 50 47 43 40 37 33 30 28 26 24 22 21 20 19 19 19 19
45 45 44 43 42 41 39 38 36 35 34 32 30 29 27 26 26 26 26 26 29 35 40 44 47 49 48 46 43 40 37 33 30 28 25 23 22 21 20 19 19 19 19
41 40 40 39 37 36 35 34 34 33 32 30 28 26 25 24 23 23 23 24 27 32 37 42 44 46 46 45 43 41 37 33 30 28 25 23 22 21 20 20 20 20 19
36 35 34 33 32 31 30 30 30 29 29 28 26 24 23 22 21 21 22 23 27 32 36 40 42 45 45 44 42 40 36 33 30 28 26 24 22 22 21 20 20 19 19
31 29 28 27 27 27 26 26 26 26 25 25 24 22 21 19 18 19 20 22 27 33 35 39 41 43 44 42 40 38 35 32 30 28 25 23 23 22 21 20 20 20 20
27 24 22 20 20 20 20 21 22 23 23 22 21 20 18 17 16 16 19 21 26 32 34 37 38 40 42 40 38 36 33 31 29 28 26 24 23 22 21 21 21 21 21
25 19 16 13 11 12 14 16 17 19 20 20 19 17 16 15 14 14 16 21 26 32 35 36 37 39 40 39 36 34 32 30 28 27 26 25 23 23 22 22 22 22 22
23 16 11 7 4 5 8 12 14 16 17 17 17 16 14 13 13 13 16 22 27 33 36 37 37 37 38 36 34 33 31 29 29 27 26 26 25 25 25 24 23 23 22
23 17 11 6 2 2 6 9 12 15 16 17 16 14 12 12 13 15 19 24 28 34 37 37 37 37 37 35 34 33 31 30 29 28 27 27 27 26 25 24 23 23 22
26 20 15 10 6 6 8 11 14 15 16 16 15 13 12 14 15 19 22 25 29 35 37 37 35 35 35 34 33 32 30 30 29 29 28 28 27 26 25 24 23 22 22
27 24 19 15 12 10 11 13 15 16 16 16 15 15 15 18 19 20 23 27 31 34 34 34 33 34 34 32 32 32 31 31 30 30 29 28 27 26 25 24 23 22 21
27 25 21 18 15 14 14 15 16 17 18 18 18 19 20 21 21 23 27 29 31 33 32 32 32 33 32 32 32 31 30 30 30 29 28 27 26 25 25 23 22 21 20
28 25 23 21 19 18 18 18 19 20 20 21 22 23 24 25 26 27 28 29 30 31 32 32 32 32 32 32 31 31 30 30 29 28 27 26 24 24 23 22 21 20 20
29 26 24 23 22 21 21 22 23 24 24 24 26 26 27 28 28 29 30 30 29 30 31 31 31 32 31 30 30 29 28 28 27 26 25 24 23 22 21 20 20 19 19
30 28 27 25 24 24 24 24 25 25 26 27 27 28 28 28 28 29 29 29 29 30 30 30 30 29 28 28 27 27 26 26 25 23 22 21 21 20 19 19 19 19 19
30 28 27 26 25 25 25 25 26 26 26 27 28 29 28 28 29 30 30 31 30 29 28 28 27 27 26 25 24 24 23 22 21 20 20 19 19 18 18 18 18 19 20

GEFSGL_500_meanwind_054.txt.gz
Wind_Speed
59 59 58 57 57 57 57 57 58 60 62 64 65 66 66 66 65 65 64 63 61 60 58 56 54 51 49 46 43 41 37 34 32 31 30 28 26 25 24 23 23 23 22
59 59 57 56 55 54 53 52 53 53 55 58 60 63 66 69 70 69 68 68 66 64 62 61 59 56 53 50 47 44 41 37 34 32 31 29 27 25 24 24 23 23 22
59 58 56 55 53 52 50 48 47 46 47 49 51 55 59 63 67 70 72 71 70 68 66 64 62 60 57 54 50 47 44 41 37 34 32 30 28 26 25 24 23 22 22
59 59 58 55 53 52 49 46 44 42 40 40 42 45 49 53 58 64 69 72 73 72 70 68 65 63 60 57 54 50 47 43 40 37 34 31 29 27 25 24 23 22 21
61 60 59 56 54 52 49 46 43 41 38 36 35 35 37 42 47 52 57 64 69 72 72 70 67 64 61 59 56 52 49 46 43 39 35 32 30 28 25 24 24 22 21
62 62 60 57 54 52 49 46 43 41 38 35 33 32 32 33 36 40 44 50 57 63 68 69 67 65 61 59 57 54 51 48 44 41 37 34 31 29 27 25 24 23 22
62 61 59 56 54 51 49 47 44 43 41 38 36 34 32 31 31 33 35 38 43 49 57 62 65 64 61 59 57 55 52 49 45 42 38 35 32 30 28 26 25 24 22
60 58 56 53 51 48 47 45 44 43 42 40 38 36 34 32 31 30 31 33 34 38 44 51 58 61 60 58 56 54 52 49 46 43 39 36 34 31 28 27 25 24 22
57 54 50 48 47 45 44 43 42 41 41 40 39 36 34 33 32 31 30 30 31 34 36 41 48 54 57 57 55 53 52 49 47 43 40 37 35 32 29 27 25 23 22
54 50 47 45 42 41 40 39 39 39 39 39 38 36 35 34 33 32 31 30 29 30 33 35 40 46 51 54 54 52 51 48 46 44 41 38 35 32 29 27 25 24 23
50 46 43 41 38 35 35 35 35 35 37 38 37 36 35 34 34 33 32 30 30 30 31 32 35 39 45 49 51 51 50 48 46 44 41 38 35 32 30 28 26 24 23
47 43 40 36 32 30 28 28 30 32 33 35 35 34 34 34 33 32 31 30 29 29 29 31 33 36 40 45 48 49 50 49 46 44 42 39 35 32 30 28 26 25 24
45 40 36 32 28 25 22 21 22 25 28 30 32 31 31 32 31 31 30 29 28 28 29 30 32 34 37 42 46 47 49 48 46 44 41 38 35 32 30 28 27 25 23
42 38 34 29 24 20 17 16 16 18 21 24 26 27 27 27 27 27 27 27 26 26 26 29 32 33 36 41 44 47 48 47 45 43 41 38 36 33 31 29 27 25 23
41 36 31 26 20 16 12 9 10 12 15 18 21 22 23 23 24 24 24 24 25 25 25 27 30 32 35 40 44 46 47 47 45 42 40 38 35 33 31 29 28 26 24
40 35 30 25 18 13 9 6 5 7 10 13 16 19 20 20 20 21 21 22 23 23 24 25 28 32 36 41 44 46 47 46 44 41 39 38 35 33 30 28 26 25 24
38 34 29 24 19 13 9 5 2 2 6 10 13 15 16 17 17 17 18 19 20 21 22 24 27 31 37 41 44 44 45 45 43 40 39 37 35 32 30 28 26 25 24
37 33 28 23 19 16 12 9 6 4 5 8 10 12 13 13 14 14 14 15 17 18 20 22 26 32 39 41 42 44 44 44 42 40 38 36 34 32 30 28 26 25 25
36 31 27 23 19 16 14 11 9 7 7 7 8 10 10 11 12 12 12 14 15 17 19 23 28 34 39 41 42 43 43 42 40 39 37 35 33 31 29 28 27 26 25
35 30 26 23 20 17 15 14 12 11 10 9 9 9 9 9 10 11 12 14 16 16 19 23 29 37 38 40 41 43 43 40 38 37 35 34 32 30 28 27 26 26 25
34 30 26 24 21 19 17 15 15 14 14 13 12 11 10 10 11 12 14 16 18 19 23 26 31 36 37 39 40 41 40 38 37 35 33 32 30 28 28 27 26 25 24
33 31 27 24 22 20 19 18 17 16 16 15 15 14 14 14 16 18 18 18 20 22 26 29 32 35 36 38 38 38 37 35 34 33 31 29 28 27 26 25 24 23 23
31 30 28 25 23 21 20 19 18 18 18 18 18 17 17 18 20 19 19 20 22 25 27 29 31 33 34 33 33 33 32 31 30 29 29 28 27 26 24 23 23 22 22
29 28 26 25 23 22 21 20 20 20 20 19 19 19 20 21 22 22 23 23 25 26 28 29 30 32 31 30 30 30 30 29 28 28 27 26 25 24 23 22 22 21 21
28 26 24 23 22 22 22 21 21 21 21 21 21 22 23 24 24 24 24 25 26 27 28 28 30 31 29 28 28 27 26 25 25 25 24 23 23 22 21 21 20 20 19
26 25 23 22 22 21 21 21 22 22 22 22 23 24 24 25 25 26 25 25 25 26 27 27 28 27 26 26 25 24 23 23 22 22 21 20 20 20 19 19 19 18 18

GEFSGL_500_meanwind_060.txt.gz
Wind_Speed
43 44 44 45 46 46 47 48 49 50 51 52 54 55 57 59 61 63 64 66 67 66 66 64 62 60 58 56 54 53 50 48 47 44 42 39 37 34 32 29 27 26 25
45 45 45 47 49 50 51 51 52 52 54 55 55 56 57 58 61 63 66 67 69 70 71 70 68 65 63 61 59 56 54 51 50 48 46 43 40 37 34 31 29 27 26
46 47 49 51 53 54 54 54 54 55 55 55 56 56 57 58 59 62 65 67 69 70 72 74 73 72 69 65 62 61 59 55 53 51 50 47 43 40 37 34 31 29 27
48 50 53 55 56 57 57 57 56 55 54 54 54 54 55 56 56 58 61 63 66 68 70 72 74 76 75 72 69 65 62 60 56 54 52 50 46 42 39 36 34 31 29
51 53 55 56 58 58 58 56 54 54 52 51 52 52 53 53 54 54 55 57 59 62 65 67 70 73 76 76 74 71 67 64 61 58 54 52 49 45 42 39 36 33 30
53 55 56 57 58 57 55 53 51 50 49 48 48 48 49 50 51 51 51 51 52 55 57 60 63 67 71 74 75 74 71 68 64 61 58 54 51 47 44 41 38 35 32
55 56 57 57 56 54 52 49 46 44 44 44 44 45 46 47 48 47 47 47 46 47 49 52 55 59 63 69 73 74 73 70 66 63 61 56 52 49 45 42 39 37 33
55 55 55 55 53 50 47 44 42 41 40 40 41 41 43 44 45 45 45 44 41 40 42 44 47 50 54 59 66 70 71 71 70 66 60 56 53 50 48 44 40 37 34
54 54 53 52 49 46 42 39 37 36 36 35 36 37 39 40 42 43 43 41 39 38 37 38 40 41 45 50 55 61 66 69 68 66 63 57 52 49 46 44 41 37 34
53 52 50 48 45 41 38 35 32 31 30 30 30 31 33 36 38 40 40 39 38 36 35 35 35 36 38 42 45 50 56 61 64 64 61 57 53 49 46 43 41 38 35
51 49 47 44 41 37 33 30 27 25 23 23 24 26 29 32 35 36 38 38 36 35 34 33 32 33 34 37 39 43 48 54 59 60 59 56 53 50 46 43 41 38 35
48 46 44 40 37 34 31 27 23 19 17 18 19 22 25 29 32 34 36 36 34 33 32 32 32 32 32 34 36 40 45 50 54 56 57 55 52 50 48 45 42 38 35
46 44 41 38 34 32 29 25 20 16 13 12 13 17 21 25 28 31 33 33 33 31 31 32 31 31 31 31 33 38 43 47 50 53 55 54 51 49 48 45 42 39 36
45 43 39 36 33 30 27 23 19 15 11 8 8 12 16 20 23 26 29 31 31 30 30 30 30 30 30 30 30 34 41 45 48 50 52 52 50 48 47 45 42 39 37
43 41 38 34 32 29 26 22 18 14 9 5 5 9 13 16 20 23 26 28 29 29 29 29 29 28 28 29 30 33 39 44 46 48 51 51 49 47 46 44 42 39 36
41 39 36 33 31 28 24 21 18 14 9 5 1 6 11 14 18 21 22 24 25 26 27 27 27 27 27 28 30 34 38 42 45 47 49 50 49 46 45 43 41 39 36
39 37 34 32 30 28 24 21 18 14 11 6 2 4 7 11 15 17 18 20 22 24 24 25 26 26 27 28 30 34 38 42 44 46 48 48 47 45 44 42 40 38 36
37 35 32 31 29 27 24 21 18 15 11 8 5 3 5 8 10 13 15 17 19 21 22 23 24 26 27 28 30 33 37 41 43 45 47 47 46 44 41 40 38 37 35
35 33 31 29 28 27 24 21 19 16 12 10 7 5 4 5 6 9 12 14 15 17 19 21 23 25 27 29 30 34 39 40 41 43 45 45 44 43 40 39 37 36 33
33 31 29 28 27 25 23 21 19 17 15 12 10 8 6 6 5 6 8 10 12 14 16 19 22 25 26 28 32 36 39 40 42 45 45 45 43 41 39 37 35 33 31
30 29 28 26 25 23 22 21 19 18 16 14 13 10 9 7 6 7 7 9 10 12 14 16 19 22 24 28 33 35 38 40 41 43 44 44 41 39 37 36 34 33 31
28 27 26 24 23 22 20 20 19 18 17 15 14 12 10 9 8 8 8 9 10 13 15 16 18 21 26 30 34 36 38 40 42 42 43 42 40 38 35 33 32 31 29
27 25 24 23 22 21 19 18 18 18 17 17 16 14 13 12 11 11 12 13 13 15 16 17 19 23 28 31 34 36 37 38 38 38 38 36 35 34 32 32 30 30 29
25 24 22 21 20 20 19 18 19 19 19 19 18 18 17 16 15 14 15 16 17 18 19 21 23 25 28 30 32 34 35 36 37 38 37 35 33 32 31 30 28 28 27
22 22 21 20 19 18 18 18 18 19 20 20 21 21 20 19 19 18 19 20 20 21 21 23 25 27 29 30 30 32 33 35 33 34 34 32 31 30 29 28 27 26 24
19 19 19 19 19 18 18 18 17 18 19 20 20 20 21 21 21 22 22 22 22 23 23 25 26 27 27 29 29 30 31 31 30 30 29 28 27 27 26 25 24 23 22

GEFSGL_500_meanwind_066.txt.gz
Wind_Speed
45 44 43 42 43 44 45 46 47 48 49 49 50 51 51 51 51 50 51 51 52 54 55 55 54 54 54 54 52 51 49 47 45 44 43 42 41 40 40 39 37 34 32
45 45 44 44 44 45 47 48 49 50 51 52 53 53 54 54 54 54 54 54 54 55 56 57 57 57 56 56 56 55 54 52 49 47 45 43 43 42 41 41 39 38 35
45 45 45 45 46 47 48 49 50 51 51 52 53 54 55 55 56 56 55 56 56 56 57 59 60 61 60 59 58 57 57 56 54 51 49 47 45 44 43 41 41 40 38
45 45 46 46 46 47 48 49 49 50 51 52 53 54 55 55 55 55 56 57 56 57 58 59 61 62 63 62 62 60 59 59 58 56 53 49 49 47 45 43 42 41 40
45 46 46 46 46 47 49 49 49 49 50 50 51 51 51 52 53 54 55 55 56 56 57 58 60 62 63 65 64 63 62 61 61 58 57 54 52 49 48 45 44 43 41
46 46 46 46 47 48 49 48 47 47 48 48 48 48 48 49 51 52 52 52 53 54 55 56 57 59 60 64 65 66 65 63 62 62 60 58 56 52 51 48 45 45 43
46 45 45 46 47 47 47 45 45 45 46 44 44 44 44 44 45 47 47 48 48 50 52 53 54 56 57 59 62 64 66 65 65 64 62 61 58 56 54 52 47 45 45
46 45 45 46 46 46 45 45 43 43 42 41 40 39 39 39 40 41 43 44 44 45 47 49 50 50 52 53 56 58 61 63 64 66 65 63 60 57 54 52 52 49 44
45 45 46 46 45 45 44 42 40 39 38 37 36 34 32 32 32 34 37 40 40 41 42 44 45 46 47 48 50 53 55 58 61 63 64 64 61 59 57 55 52 49 45
45 45 46 45 44 43 41 39 38 37 36 34 32 29 27 25 25 27 29 32 35 36 38 39 41 43 43 44 44 46 48 50 54 57 59 61 61 59 57 55 53 50 47
44 45 45 44 43 40 38 37 36 35 34 31 28 25 21 20 19 20 22 25 28 30 33 34 36 38 40 40 39 40 42 44 46 49 51 54 57 58 56 55 53 50 47
44 44 44 43 41 38 36 35 34 33 31 28 25 22 19 16 15 15 18 21 25 27 30 31 32 33 35 36 36 36 37 39 41 43 46 48 51 53 54 54 52 49 47
43 43 42 40 38 36 35 34 33 32 29 26 23 20 17 15 14 14 15 18 21 25 27 28 29 30 32 33 33 33 33 34 36 39 42 44 46 47 49 49 49 47 46
42 40 39 38 36 35 34 33 32 30 28 25 21 18 15 12 10 10 12 15 19 22 25 26 26 27 28 29 30 30 30 30 32 35 38 41 43 44 46 46 46 46 45
40 38 38 37 35 34 33 32 30 29 26 23 20 16 13 10 8 7 10 13 17 22 24 24 25 26 26 27 27 28 28 29 30 33 36 38 40 42 43 44 43 45 45
38 37 36 36 34 33 32 30 29 27 25 22 19 16 12 8 6 6 8 12 16 20 22 23 24 24 24 25 25 26 27 27 29 33 35 36 38 40 41 42 42 44 44
37 35 34 34 33 32 30 29 27 26 24 22 19 16 11 7 4 4 6 9 13 18 21 23 24 23 23 23 24 24 24 26 28 32 33 35 37 39 40 41 41 42 43
35 34 33 32 32 31 29 28 27 26 24 22 20 16 12 8 4 1 3 7 11 16 19 21 22 22 22 22 22 22 23 25 28 31 34 35 36 38 40 41 41 42 42
34 33 32 31 30 29 28 27 27 26 24 22 20 16 13 9 6 3 1 5 9 13 16 19 20 21 22 22 21 21 22 25 27 31 34 35 36 38 40 40 41 42 41
32 31 30 29 28 28 27 26 26 26 24 22 19 16 13 10 7 5 2 3 7 10 13 15 17 19 20 20 21 21 22 24 27 30 33 34 35 38 40 41 41 41 40
30 29 28 27 27 27 26 25 25 25 23 21 19 17 14 11 8 6 3 1 5 8 12 14 15 17 18 19 19 21 22 24 27 30 32 34 36 39 40 40 40 40 39
28 27 26 25 25 25 25 24 24 24 22 21 20 18 15 11 9 6 4 1 2 6 9 12 14 15 16 16 18 20 22 25 27 29 31 34 37 39 38 38 38 39 38
26 25 24 23 23 23 22 23 23 23 22 22 21 19 16 13 11 8 6 3 3 4 6 10 12 14 15 16 17 20 22 25 26 29 32 35 36 36 36 37 37 37 36
23 23 22 21 21 20 21 21 21 22 21 21 21 20 19 17 14 12 10 7 5 5 7 8 10 12 14 15 16 18 23 25 27 30 32 32 32 33 35 35 35 35 35
21 20 19 19 19 19 19 19 19 19 20 20 20 20 19 18 16 15 13 12 11 10 10 11 12 14 16 16 17 18 23 26 27 29 30 29 30 32 33 33 33 32 31
20 18 17 16 16 16 17 17 16 17 18 19 19 19 19 19 18 17 15 15 15 16 16 16 16 17 19 19 20 20 22 25 27 28 29 29 30 31 31 30 29 27 27

GEFSGL_500_meanwind_072.txt.gz
Wind_Speed
43 43 42 41 41 41 40 41 41 42 42 43 43 44 44 45 45 45 44 44 44 44 44 44 45 46 46 46 45 47 47 46 44 43 44 44 43 43 43 43 43 41 39
43 42 41 41 41 41 41 42 43 43 43 44 44 45 45 45 46 47 47 47 46 46 47 47 47 47 48 49 49 48 49 49 48 48 46 46 44 45 45 45 45 44 42
42 42 41 42 41 42 42 43 44 44 44 44 44 44 45 46 46 47 47 48 48 48 49 50 50 50 50 50 51 51 52 52 51 50 49 48 48 47 46 46 46 46 45
42 42 42 42 42 42 43 44 44 44 43 43 44 44 44 45 46 47 47 48 50 50 50 51 52 53 53 53 53 53 54 54 53 53 51 51 50 49 48 47 47 47 46
43 42 42 42 42 42 43 43 43 43 42 42 42 42 43 44 44 45 47 48 49 50 51 51 52 54 55 55 55 55 56 56 56 55 54 54 53 51 48 47 47 47 46
43 42 42 42 42 43 43 43 42 42 41 42 42 42 42 42 43 44 45 47 48 49 49 50 52 54 55 56 57 57 58 58 58 57 56 56 56 54 50 48 48 48 47
43 43 43 43 43 43 42 42 41 41 41 41 40 40 40 41 41 42 43 44 44 45 47 49 50 52 53 55 57 58 59 59 59 59 59 58 57 56 53 50 49 49 48
44 44 43 43 43 42 41 41 41 40 39 39 38 38 37 38 39 39 39 39 39 40 43 45 47 50 51 53 55 57 58 59 60 59 60 60 59 58 56 54 52 50 49
44 44 44 43 42 41 41 41 40 39 38 38 37 36 35 35 35 34 34 33 34 36 38 41 43 46 49 50 52 54 56 57 58 59 59 61 61 60 58 57 55 53 51
44 44 43 42 41 41 41 40 38 38 37 36 35 34 33 31 30 30 29 29 30 31 33 35 38 41 44 47 49 51 52 55 56 57 58 58 60 61 60 58 56 54 51
44 43 42 41 40 40 40 38 37 37 36 34 33 32 30 28 27 25 24 24 24 25 27 29 33 37 39 42 44 46 49 52 54 55 57 57 57 58 59 58 56 55 52
44 43 42 41 40 39 39 37 36 36 34 32 31 30 29 26 24 22 21 20 20 21 23 25 28 32 35 38 40 42 46 48 50 51 54 54 55 56 57 57 56 54 53
43 42 42 41 40 39 38 36 36 35 34 32 31 29 26 24 21 19 18 17 16 17 19 21 25 29 32 34 37 39 41 44 46 47 48 50 52 53 55 56 56 55 53
43 42 41 40 39 39 37 36 35 34 33 32 30 27 25 22 19 16 15 13 12 13 16 19 22 25 28 32 35 37 38 40 43 44 45 47 49 51 52 54 55 55 54
44 42 41 39 38 38 36 35 34 33 32 31 28 25 23 21 18 14 11 9 8 10 13 17 21 24 26 30 32 34 35 37 39 40 42 43 45 48 49 51 52 53 53
43 41 39 38 37 37 35 34 33 32 31 30 28 25 23 20 17 13 9 7 7 9 12 16 20 23 25 27 29 31 33 35 37 38 39 40 42 45 46 48 49 50 51
42 40 38 37 36 35 34 32 31 30 30 29 27 26 23 20 17 13 9 6 6 9 12 15 19 22 24 26 28 29 30 33 35 36 37 38 40 42 45 45 47 49 50
41 39 37 36 34 34 33 31 30 30 29 27 26 25 23 19 16 13 9 5 4 8 12 16 18 21 23 25 26 28 30 32 33 34 35 36 38 41 44 44 46 48 49
39 38 36 35 33 33 32 30 29 29 28 27 26 25 22 18 15 13 9 5 2 6 10 15 17 19 22 23 24 25 27 29 31 32 34 35 36 39 42 43 45 47 49
38 37 35 33 32 31 30 29 28 27 27 26 25 25 22 18 15 12 9 5 1 4 9 13 15 18 20 21 23 24 25 27 28 30 32 33 35 38 41 43 45 46 48
37 36 34 31 30 29 28 27 27 26 26 25 24 23 21 18 16 12 9 5 1 3 7 10 13 14 17 19 21 22 23 24 26 27 29 31 33 36 39 42 45 46 47
35 34 32 30 28 28 27 26 25 25 25 25 24 22 21 18 15 12 9 5 1 3 6 9 10 12 15 17 20 21 21 22 24 25 27 29 31 35 39 42 45 46 45
33 32 30 27 26 25 25 24 24 24 24 24 23 21 19 17 16 13 9 7 4 3 4 7 9 11 13 15 17 19 21 22 22 23 26 28 31 34 37 41 43 43 42
31 29 27 25 24 23 22 23 23 23 23 23 22 21 19 17 15 13 11 8 6 5 6 7 9 10 12 13 15 17 19 21 22 23 25 28 30 34 36 38 40 41 40
28 27 25 23 22 21 20 20 20 21 20 21 21 20 18 16 14 12 11 10 8 8 7 8 8 9 9 11 14 16 17 20 21 23 25 27 29 32 33 36 38 39 40
26 24 23 21 20 18 17 17 17 18 19 19 19 19 18 16 15 13 12 11 10 10 10 9 8 8 9 10 12 14 16 20 21 23 25 26 27 29 31 33 35 37 38

GEFSGL_500_meanwind_078.txt.gz
Wind_Speed
36 36 36 36 36 36 36 36 36 35 35 35 35 36 36 37 38 38 39 39 39 40 41 41 41 42 42 43 43 43 44 43 43 43 44 45 46 46 46 44 44 43 42
36 37 37 37 37 37 37 36 36 36 36 36 37 37 38 38 39 39 39 39 40 41 41 42 42 42 43 44 45 45 45 46 45 45 46 46 47 48 48 46 46 46 45
37 37 37 37 38 38 37 37 37 37 38 38 38 38 38 39 39 40 40 40 40 41 42 43 44 44 44 45 45 46 47 48 49 48 48 48 48 48 49 48 48 48 47
38 38 38 38 38 38 38 38 38 38 38 38 38 38 39 39 39 40 40 41 41 42 42 43 44 45 45 46 47 47 48 49 50 51 51 50 49 49 50 49 50 50 49
39 39 39 39 39 39 39 39 39 39 39 39 39 39 39 40 40 40 40 40 40 41 42 43 43 44 45 47 48 49 49 50 51 52 53 52 51 52 51 51 52 51 51
39 40 40 40 40 41 41 41 40 40 40 40 39 40 40 40 40 40 40 39 39 40 41 42 43 44 46 47 48 50 51 51 52 54 54 55 54 54 55 54 54 54 53
40 41 41 42 42 42 42 41 40 40 40 40 40 40 40 40 40 39 39 38 38 39 40 41 42 43 45 47 49 50 52 53 54 54 56 55 56 55 56 56 55 55 54
42 42 43 43 43 44 43 42 41 41 41 40 40 40 39 39 39 38 38 37 36 37 38 39 40 42 44 46 48 50 51 53 54 56 57 57 57 56 56 58 57 56 56
43 44 44 45 44 44 43 42 41 41 41 40 39 38 38 37 38 37 36 34 34 34 36 37 38 40 42 44 47 49 51 53 54 55 57 59 60 58 56 57 58 58 56
44 45 46 45 45 45 44 42 41 40 40 39 38 38 37 36 36 35 34 32 31 31 32 34 36 37 39 41 43 47 50 52 54 55 57 59 60 60 58 57 57 58 57
46 46 46 46 46 46 44 42 40 40 40 38 37 37 37 35 34 33 32 30 29 28 29 30 32 33 36 38 40 43 46 49 52 54 57 59 60 61 59 58 58 57 56
47 47 47 47 46 45 44 42 40 40 38 37 37 36 35 34 33 32 31 29 27 26 25 26 27 28 30 33 36 39 42 46 49 52 55 58 59 60 60 58 58 58 56
48 48 48 47 46 45 43 41 40 39 38 37 36 35 34 34 33 31 29 27 25 24 23 24 24 25 26 29 32 36 39 42 45 48 51 54 57 59 60 60 59 58 57
48 48 48 47 45 44 42 41 39 38 37 36 35 34 33 33 32 30 27 25 23 22 20 20 20 21 23 25 28 31 34 38 41 44 47 50 54 56 58 58 58 57 56
48 48 48 46 44 42 41 40 39 38 37 35 34 33 32 31 31 28 25 23 22 20 18 17 17 18 20 23 25 28 30 33 37 41 44 47 50 52 54 55 56 56 56
48 48 47 45 43 41 40 39 38 37 36 35 34 31 30 30 29 27 25 22 20 18 16 14 14 15 17 20 23 26 29 30 33 36 40 43 46 48 51 52 53 53 54
49 48 45 43 41 40 38 37 36 36 36 34 33 31 30 29 28 26 24 21 18 15 13 11 11 12 14 17 20 24 26 28 30 32 36 40 42 44 47 49 50 50 51
48 46 43 41 39 38 38 37 35 34 33 32 31 30 29 28 27 25 22 19 16 13 11 9 8 9 12 15 18 21 23 25 27 30 33 36 39 41 44 47 49 49 49
47 44 41 39 38 38 37 35 34 34 32 30 29 28 27 27 25 23 21 17 14 11 8 6 6 8 11 14 16 19 21 23 25 27 30 32 35 38 39 42 45 47 49
44 42 39 37 37 36 35 34 33 32 31 29 28 27 26 25 24 22 19 15 12 10 7 5 4 6 10 13 15 18 20 21 23 25 27 29 32 34 35 38 41 44 47
42 39 37 36 35 35 33 32 31 31 29 28 26 25 24 23 22 20 17 14 11 9 6 4 4 6 9 12 14 16 18 20 22 24 25 26 28 31 33 35 39 42 44
40 37 35 34 33 32 31 30 30 28 27 26 24 23 22 22 20 18 15 13 10 8 5 3 3 6 8 11 14 16 17 18 20 22 24 25 26 28 31 33 36 39 41
37 35 33 32 30 29 28 28 27 25 24 24 23 22 21 20 19 17 15 12 10 8 5 2 2 5 8 10 13 15 17 18 19 20 22 24 26 27 30 32 34 37 40
34 33 31 29 28 27 26 25 24 22 21 22 21 20 19 19 17 16 14 12 10 7 5 3 1 3 6 9 12 14 16 18 18 20 21 22 24 26 28 31 33 35 38
32 31 29 27 25 24 23 23 22 20 19 19 19 18 17 17 16 15 13 12 10 8 6 5 3 2 5 7 10 13 15 17 17 18 20 21 22 25 27 29 32 34 35
30 28 26 24 23 22 21 20 18 17 16 16 16 15 15 15 15 14 13 12 10 8 7 6 4 3 4 6 8 10 13 15 16 17 19 20 21 24 27 28 30 32 34

GEFSGL_500_meanwind_084.txt.gz
Wind_Speed
23 24 25 26 27 28 28 29 29 30 31 31 32 32 32 33 33 33 34 34 35 36 36 37 37 39 39 40 40 41 42 42 42 42 43 44 44 43 43 44 44 44 44
23 25 26 27 28 29 30 31 32 33 33 33 33 33 34 34 34 34 35 35 35 35 36 37 37 39 40 41 42 43 43 44 44 44 44 45 46 46 45 44 45 45 44
25 26 27 28 30 31 32 34 34 35 35 35 35 35 35 35 35 36 36 36 36 36 36 37 38 39 40 41 42 44 45 45 46 46 46 47 47 47 46 45 46 46 46
27 28 29 31 32 34 35 36 36 37 37 37 37 37 37 37 36 36 36 36 37 37 37 38 39 40 41 42 43 44 45 46 47 47 47 48 48 48 48 46 46 47 47
29 30 32 33 35 36 37 38 39 39 39 39 39 38 38 38 37 37 37 37 37 37 38 38 39 41 42 43 45 45 46 47 47 48 48 49 49 49 49 48 47 48 48
30 32 34 36 37 38 39 40 41 41 41 40 40 39 39 39 38 38 37 36 36 36 37 38 39 41 42 43 45 45 46 46 47 48 49 50 50 50 50 49 48 48 49
33 34 36 38 39 40 41 42 42 42 41 41 40 40 40 39 38 37 37 36 36 37 37 38 39 40 40 41 43 44 45 46 47 48 49 50 50 52 50 51 50 50 49
35 37 39 40 41 42 43 44 43 43 42 41 41 40 39 38 38 37 36 36 36 36 37 37 38 38 38 39 40 42 44 45 46 48 49 50 51 52 51 51 51 51 51
37 39 40 42 43 44 44 45 44 43 43 42 41 39 38 37 37 36 35 35 35 35 35 36 36 36 36 37 38 39 41 44 46 47 49 50 52 52 52 51 51 52 53
39 41 42 44 44 45 45 45 45 43 43 42 40 39 37 36 36 35 34 34 33 33 34 34 34 35 35 35 36 37 39 41 44 46 48 50 52 52 53 53 52 52 53
41 43 44 45 46 47 46 46 45 43 42 41 39 37 36 35 34 33 33 33 32 32 32 32 33 33 33 34 35 36 37 40 42 45 47 50 52 52 53 54 53 53 53
43 44 45 46 47 48 48 46 44 43 41 39 38 37 36 35 34 33 32 32 32 31 30 30 30 30 30 31 32 34 36 39 41 44 46 48 50 52 53 54 54 53 52
44 45 47 48 48 49 48 47 44 42 40 39 37 36 36 35 33 32 32 32 31 30 29 28 28 27 28 28 30 31 33 36 39 41 44 47 48 50 52 54 54 55 53
46 47 48 49 49 49 48 46 44 41 40 38 37 35 35 33 32 31 31 31 30 29 28 27 26 26 26 27 27 28 30 32 35 39 41 44 47 49 51 53 54 54 55
49 49 49 50 49 48 47 45 43 41 39 37 36 35 33 31 31 30 30 30 29 27 26 25 24 23 23 23 24 25 26 29 32 35 38 41 44 46 49 52 52 53 54
49 50 50 50 49 48 46 44 42 41 38 37 35 34 32 30 29 29 29 28 27 26 24 23 21 21 21 21 22 23 25 26 29 32 35 38 40 43 46 49 51 52 53
50 51 51 50 48 47 45 43 41 39 37 35 35 33 31 30 29 29 28 27 25 24 22 20 19 18 19 18 19 20 22 24 26 30 32 34 37 40 43 45 48 49 51
51 51 50 49 47 46 44 41 39 36 35 34 33 32 30 29 28 27 26 25 23 21 20 18 17 16 15 15 16 17 18 21 23 26 28 30 33 36 39 42 43 45 47
51 50 49 48 46 44 41 39 37 35 34 32 32 31 29 28 26 25 24 23 21 19 18 16 14 12 11 11 12 14 16 18 20 23 26 28 30 33 35 38 40 42 43
50 49 48 46 44 41 39 37 35 33 32 31 30 29 27 26 24 23 23 22 20 18 16 14 12 10 9 9 10 12 15 17 19 22 23 26 28 30 33 35 38 40 41
50 48 47 44 41 39 37 35 33 31 31 29 28 27 25 24 23 22 22 21 19 16 14 12 9 8 6 6 7 10 13 16 18 21 23 25 27 28 31 34 36 38 41
49 47 45 42 39 36 34 32 30 29 28 27 26 25 24 23 22 21 21 20 18 15 12 10 8 7 4 4 6 9 12 14 16 19 22 24 25 26 29 32 35 38 40
47 45 42 39 36 33 31 30 28 27 25 24 23 22 21 20 20 19 19 17 16 13 11 9 7 5 3 4 6 9 12 14 15 17 20 22 24 25 27 29 32 34 37
44 41 38 36 33 30 28 27 26 24 23 21 20 18 18 18 19 19 17 16 16 13 9 7 6 4 3 5 6 8 11 12 15 17 19 20 22 24 27 29 30 32 35
41 38 35 32 29 27 25 24 23 22 20 19 17 17 17 17 17 17 16 15 14 12 8 6 4 3 3 5 6 8 9 11 14 16 18 19 21 23 24 27 29 31 32
37 34 31 28 26 24 23 21 20 19 18 17 16 15 15 15 15 15 15 14 12 10 8 6 4 3 3 5 6 8 9 11 13 15 16 19 21 22 23 25 27 29 30